Wind_Speed
20 19 18 19 20 21 23 26 28 30 32 35 38 41 44 47 50 53 57 60 63 66 67 67 67 67 66 66 68 68 70 71 71 71 68 66 65 64 63 63 64 65 65 66
23 23 22 21 22 23 25 27 29 31 33 36 38 42 44 47 50 53 57 60 64 66 68 69 68 68 67 67 67 68 69 70 71 70 68 66 64 63 62 62 62 63 64 65
26 26 26 24 24 25 26 28 31 32 35 37 39 42 45 47 50 53 57 60 64 66 69 70 70 69 68 67 67 68 68 69 70 70 68 65 63 63 62 61 61 61 62 63
30 29 29 27 27 28 28 30 32 33 35 38 40 42 46 48 50 53 57 60 63 66 69 70 71 70 68 67 67 67 67 68 69 69 67 65 63 62 62 61 60 60 60 61
34 33 32 29 30 31 32 31 33 35 36 39 42 43 45 48 50 52 56 59 62 65 68 70 71 71 69 67 67 67 67 67 68 68 66 64 62 61 61 60 59 59 58 58
37 37 36 32 33 35 36 34 35 37 38 41 44 46 47 48 50 52 55 59 62 65 67 69 71 71 70 68 66 66 66 66 67 67 66 63 61 60 60 59 59 58 58 57
40 40 38 35 36 37 37 38 38 39 41 42 45 47 48 49 51 52 55 58 61 63 66 68 70 71 70 68 66 65 65 65 66 66 65 63 61 60 59 59 58 57 57 56
42 42 38 37 37 38 40 40 40 41 42 44 45 47 48 49 50 52 54 56 59 62 65 67 69 70 70 68 66 65 64 64 65 65 64 62 60 59 58 57 56 55 54 54
44 41 38 37 38 40 42 42 43 43 44 45 46 47 49 49 50 51 53 55 58 61 63 66 68 69 69 69 66 64 64 63 64 64 64 62 60 58 56 55 54 53 52 52
44 40 36 37 39 41 43 44 45 45 46 47 48 48 49 50 50 50 52 54 57 59 62 64 67 68 69 68 66 64 63 62 63 63 63 63 60 57 55 53 52 52 51 51
46 39 36 37 39 41 43 45 46 47 48 48 49 49 50 50 50 50 51 53 55 58 60 63 65 66 67 68 66 63 62 61 61 62 62 62 61 57 55 53 51 51 50 50
48 42 43 41 40 41 44 45 46 48 48 49 50 50 50 50 50 50 50 52 55 57 59 61 64 64 66 67 66 63 61 60 60 60 61 61 60 58 55 52 51 50 50 49
51 49 49 46 44 44 46 47 47 49 50 50 50 51 51 51 51 50 50 52 54 56 57 59 62 63 64 65 65 62 60 59 59 59 59 59 58 57 55 53 51 49 48 48
56 56 56 53 52 50 50 49 50 50 51 51 51 52 52 52 52 51 52 53 55 56 56 57 59 61 62 63 64 62 59 58 57 57 58 58 57 56 53 51 49 48 47 46
62 63 63 60 58 55 54 54 55 54 53 53 53 53 53 54 53 53 54 55 55 55 55 56 57 59 60 61 63 61 58 56 56 56 56 56 56 55 53 50 48 46 45 44
68 69 69 67 64 61 60 60 59 58 57 57 56 55 55 56 55 55 56 56 56 55 54 55 55 57 58 59 61 60 57 55 54 54 54 55 55 54 53 50 48 45 43 42
72 72 72 72 69 66 64 63 63 62 61 60 59 58 58 58 58 58 58 59 57 55 54 53 53 54 56 57 59 58 56 53 52 52 53 53 53 53 52 50 47 45 42 40
69 70 71 72 71 70 67 64 64 63 63 63 63 62 60 60 59 59 60 60 58 54 53 51 51 52 54 55 57 57 54 51 50 50 51 51 52 52 52 50 47 44 42 40
62 64 65 67 68 69 68 67 66 65 64 64 64 63 62 62 61 61 60 59 56 53 51 49 49 49 51 53 55 55 52 50 49 48 49 49 50 51 51 50 47 44 42 39
60 61 63 63 63 64 64 64 64 64 63 64 64 62 61 60 61 61 60 57 54 52 50 47 46 47 49 51 53 53 51 48 47 46 47 47 48 49 50 49 47 44 41 38
60 62 63 64 64 64 65 64 64 64 62 62 62 61 60 60 60 60 59 57 54 52 48 45 44 45 47 49 50 51 48 46 45 44 45 45 46 48 48 48 47 44 41 38
64 65 65 65 65 65 64 63 63 63 62 61 59 58 57 57 58 58 58 56 54 51 47 43 42 43 44 46 48 48 46 44 43 42 43 43 45 46 47 47 46 44 41 38
65 66 67 68 67 66 65 63 61 60 60 59 58 55 54 54 55 56 56 54 52 49 45 41 40 41 42 44 45 45 44 42 41 40 41 42 43 44 45 46 45 44 41 38
67 66 66 65 65 65 63 61 59 58 57 56 56 54 53 52 53 54 53 52 50 47 43 40 39 39 40 42 43 42 41 39 39 38 39 40 41 42 44 45 45 43 41 37
67 66 65 65 64 62 61 59 57 55 55 54 53 53 53 52 53 53 53 51 48 44 41 39 38 37 38 40 40 39 38 37 37 36 37 38 39 41 42 43 44 43 41 37
68 67 66 64 62 61 59 57 55 53 53 51 51 53 53 53 53 53 51 49 46 42 39 37 36 35 36 37 37 37 36 35 35 35 35 36 37 39 40 42 42 42 40 37
67 65 63 61 59 58 57 55 53 51 51 50 51 53 53 53 52 51 49 46 43 39 37 35 34 34 35 35 34 34 33 33 33 33 34 34 35 37 39 40 41 41 40 37
Wind_Direction
269 277 285 296 305 314 320 325 331 335 338 342 345 347 349 350 351 351 351 352 352 352 352 350 348 347 346 346 347 348 349 350 351 351 352 353 355 356 357 358 0 2 3 5
270 276 282 290 300 307 313 318 324 329 333 338 341 343 346 348 348 349 350 351 351 351 352 351 349 348 347 347 347 348 349 351 351 352 353 354 355 356 358 359 1 2 4 6
270 275 281 288 293 299 306 312 318 323 328 333 337 340 342 345 346 348 348 349 350 350 351 351 350 348 347 347 348 349 350 351 352 353 354 355 356 357 359 0 2 3 4 6
272 274 277 285 288 294 300 307 312 317 322 327 332 336 339 342 344 346 347 347 348 349 350 350 350 349 348 348 348 349 350 352 353 353 354 355 356 357 359 1 2 4 5 7
273 275 278 282 286 290 296 303 307 312 317 321 326 331 335 338 341 343 345 346 346 348 349 350 350 349 348 348 348 349 350 352 353 354 355 355 356 357 359 1 2 4 6 7
272 275 279 283 285 289 293 297 302 307 312 317 322 326 331 335 338 340 342 344 345 346 347 348 349 349 348 348 348 349 350 351 353 354 355 355 356 357 359 1 3 4 6 8
271 274 279 284 287 289 292 296 300 304 309 313 318 322 326 330 334 337 340 341 343 344 345 347 348 349 348 348 348 349 350 351 352 354 355 356 357 358 359 1 3 4 6 7
268 272 278 281 284 286 289 292 296 301 305 309 313 317 321 326 330 333 337 339 340 342 343 345 346 348 348 347 347 348 350 351 352 354 355 356 356 358 359 1 3 4 5 7
269 273 277 280 282 285 287 290 293 296 300 304 308 312 317 322 326 329 333 336 338 340 341 343 345 346 347 347 347 348 349 350 351 353 354 356 357 358 359 1 2 4 5 6
270 274 277 278 279 281 283 286 289 293 296 300 304 308 312 317 321 325 329 333 335 337 339 341 343 345 346 347 346 347 348 350 351 352 353 355 357 358 359 0 2 3 5 6
271 274 275 273 276 278 281 283 286 289 293 297 300 304 308 313 317 321 325 329 332 334 336 338 341 343 345 346 346 346 347 349 350 351 352 354 356 357 358 359 1 3 5 6
272 274 273 271 272 275 277 279 282 286 289 292 296 300 304 308 313 317 321 325 329 331 334 336 339 341 343 345 345 345 346 348 349 350 351 353 354 356 358 359 360 2 4 6
272 272 272 271 271 271 272 275 278 281 285 288 292 296 300 304 308 313 317 321 325 328 331 333 336 339 341 343 344 344 345 347 348 349 351 352 354 355 356 358 359 1 3 5
270 271 271 270 269 269 270 272 273 276 280 283 287 291 295 299 304 308 313 317 321 324 328 331 334 337 339 341 343 344 344 345 347 348 350 351 352 354 356 357 358 359 1 4
271 272 272 271 270 271 271 271 272 273 276 279 282 286 290 294 299 303 308 312 317 321 324 328 331 334 337 339 342 342 343 344 345 347 348 350 351 353 354 356 357 359 360 1
272 272 272 272 272 271 270 271 272 273 273 275 278 281 285 289 293 298 302 307 312 317 320 324 327 331 334 337 339 341 341 342 344 345 347 348 350 351 353 355 357 358 359 0
272 272 273 273 273 272 272 272 272 273 273 274 275 276 280 284 288 293 297 302 307 312 316 320 324 327 331 334 337 339 340 340 342 344 345 347 348 350 352 353 355 357 358 359
275 275 276 276 276 275 274 274 273 272 272 273 273 274 277 280 283 288 292 297 302 307 311 316 320 323 328 331 334 337 338 339 340 342 344 346 347 349 350 352 354 355 356 358
276 277 277 277 278 277 276 275 274 272 271 271 272 273 275 277 280 283 287 292 298 302 306 312 316 320 325 328 332 335 336 337 338 340 342 344 346 347 349 351 352 354 355 357
280 280 280 280 279 278 277 276 274 272 271 270 270 271 273 274 276 279 283 288 293 297 302 307 311 316 321 325 329 332 334 335 336 338 340 342 344 346 347 349 351 352 354 355
284 284 283 282 281 280 279 278 276 273 272 271 271 270 270 271 273 276 280 284 287 291 297 302 307 312 318 322 326 330 332 332 334 336 338 340 342 344 346 348 350 351 353 354
285 285 284 284 283 281 279 278 275 272 270 270 269 269 269 269 269 272 274 278 282 287 292 297 302 308 314 319 324 327 329 330 331 334 336 339 341 343 345 346 348 350 351 353
286 286 285 284 284 282 279 277 275 272 269 267 266 265 264 264 265 267 270 273 277 282 287 292 298 304 310 316 321 325 327 328 329 331 334 337 339 341 343 345 347 348 350 351
287 286 285 284 283 282 279 275 273 271 267 265 262 260 260 259 260 262 265 269 273 277 282 287 293 300 307 313 318 322 324 325 326 329 332 335 337 339 341 343 345 347 348 350
286 285 284 282 280 279 277 274 271 269 265 262 258 255 254 254 255 258 261 265 269 273 278 283 289 296 304 310 315 319 320 322 324 327 330 333 335 337 340 342 344 345 347 349
283 282 280 278 276 273 271 269 266 263 261 257 253 250 248 249 252 255 258 261 265 269 273 279 285 293 300 307 312 315 317 319 321 324 327 331 333 336 338 340 342 344 346 347
280 279 276 273 270 268 265 262 259 257 255 253 249 246 245 246 248 251 254 257 261 265 269 275 281 289 297 304 308 311 314 316 318 321 324 328 331 334 336 338 341 343 345 346
Height
5861 5859 5857 5854 5851 5848 5843 5839 5835 5831 5825 5818 5811 5803 5795 5786 5776 5766 5754 5743 5730 5717 5704 5690 5675 5661 5647 5632 5616 5601 5585 5569 5552 5536 5519 5503 5487 5471 5456 5440 5424 5409 5392 5376
5856 5853 5851 5849 5846 5842 5838 5834 5830 5825 5820 5814 5806 5798 5790 5781 5772 5762 5750 5738 5726 5713 5700 5686 5671 5657 5643 5628 5613 5597 5582 5566 5550 5534 5518 5502 5487 5472 5456 5441 5425 5410 5394 5378
5849 5847 5845 5844 5841 5837 5834 5830 5825 5820 5815 5808 5802 5794 5785 5777 5767 5757 5746 5734 5722 5709 5696 5682 5668 5653 5639 5624 5609 5594 5579 5563 5548 5532 5517 5501 5487 5472 5457 5442 5427 5412 5397 5382
5841 5840 5838 5840 5835 5831 5828 5824 5819 5814 5808 5803 5796 5789 5780 5772 5762 5752 5742 5730 5718 5706 5692 5679 5664 5650 5635 5621 5606 5591 5577 5561 5546 5531 5516 5501 5487 5472 5458 5443 5429 5415 5400 5385
5832 5831 5831 5832 5828 5824 5821 5818 5812 5807 5802 5797 5790 5784 5776 5766 5757 5747 5737 5726 5714 5702 5689 5675 5661 5647 5633 5618 5604 5589 5575 5560 5545 5530 5515 5501 5487 5473 5459 5445 5431 5417 5404 5389
5823 5821 5822 5825 5820 5815 5813 5810 5806 5800 5795 5789 5782 5776 5770 5760 5751 5742 5732 5721 5710 5698 5686 5672 5659 5644 5630 5616 5602 5588 5573 5559 5544 5530 5515 5502 5488 5474 5460 5446 5432 5419 5405 5392
5814 5812 5813 5814 5810 5806 5804 5801 5796 5791 5786 5781 5775 5768 5762 5753 5745 5736 5727 5716 5705 5694 5682 5669 5656 5642 5628 5614 5600 5586 5572 5558 5544 5530 5516 5502 5489 5475 5461 5447 5433 5420 5407 5396
5805 5804 5807 5803 5800 5797 5794 5791 5787 5782 5777 5773 5767 5761 5754 5746 5738 5730 5721 5711 5701 5690 5678 5666 5653 5639 5626 5612 5598 5584 5571 5558 5544 5530 5516 5503 5490 5476 5463 5450 5437 5424 5412 5401
5795 5798 5797 5793 5790 5786 5783 5780 5777 5773 5769 5764 5759 5753 5746 5739 5731 5724 5715 5706 5696 5686 5675 5663 5650 5637 5623 5610 5596 5583 5570 5557 5544 5530 5517 5504 5491 5478 5466 5453 5441 5429 5417 5406
5784 5788 5786 5783 5779 5776 5772 5769 5766 5762 5759 5754 5749 5744 5738 5732 5724 5717 5709 5700 5691 5681 5670 5659 5647 5634 5621 5607 5594 5581 5568 5556 5543 5530 5517 5505 5492 5480 5468 5457 5445 5433 5421 5410
5773 5776 5774 5772 5768 5764 5761 5758 5755 5752 5748 5744 5739 5735 5729 5723 5717 5710 5702 5694 5685 5676 5666 5655 5643 5631 5618 5605 5592 5579 5567 5554 5542 5529 5516 5504 5493 5481 5469 5458 5446 5435 5424 5412
5760 5763 5758 5759 5757 5753 5750 5747 5744 5741 5738 5734 5729 5725 5720 5715 5708 5702 5695 5687 5679 5670 5661 5650 5639 5627 5615 5602 5590 5577 5565 5553 5540 5528 5516 5503 5491 5480 5469 5458 5447 5435 5425 5414
5747 5746 5742 5743 5742 5739 5736 5735 5733 5729 5726 5723 5719 5715 5710 5705 5699 5693 5687 5680 5672 5664 5655 5645 5635 5624 5612 5600 5587 5575 5563 5552 5540 5528 5515 5503 5491 5479 5468 5458 5447 5437 5427 5417
5731 5728 5724 5725 5724 5724 5722 5721 5719 5717 5714 5711 5708 5704 5700 5695 5690 5684 5678 5672 5665 5658 5649 5640 5630 5620 5608 5597 5585 5573 5561 5550 5539 5527 5516 5504 5493 5481 5470 5460 5449 5439 5429 5420
5712 5708 5704 5705 5707 5709 5708 5706 5704 5703 5702 5699 5696 5693 5688 5684 5679 5674 5668 5663 5657 5650 5642 5634 5625 5615 5604 5593 5582 5570 5559 5548 5538 5527 5516 5505 5494 5483 5472 5462 5451 5441 5431 5421
5689 5686 5684 5685 5687 5689 5690 5689 5688 5688 5687 5685 5682 5680 5676 5672 5668 5663 5658 5653 5648 5642 5635 5627 5619 5610 5600 5589 5579 5568 5557 5546 5536 5526 5515 5505 5494 5483 5472 5462 5453 5443 5434 5425
5664 5664 5664 5663 5666 5669 5671 5672 5671 5671 5670 5668 5666 5664 5661 5658 5655 5651 5647 5642 5638 5633 5627 5620 5612 5604 5595 5585 5575 5564 5554 5544 5534 5524 5514 5504 5493 5483 5473 5462 5453 5444 5435 5427
5643 5644 5644 5643 5645 5648 5651 5653 5653 5652 5651 5649 5647 5647 5646 5644 5641 5639 5635 5631 5627 5623 5618 5612 5605 5597 5589 5580 5570 5560 5550 5541 5532 5522 5513 5503 5493 5482 5472 5462 5453 5444 5435 5427
5625 5624 5624 5624 5624 5625 5628 5631 5631 5631 5631 5630 5630 5630 5630 5629 5627 5625 5621 5619 5616 5612 5608 5603 5597 5590 5582 5574 5565 5556 5546 5537 5529 5520 5511 5501 5491 5481 5471 5462 5452 5444 5435 5427
5607 5606 5605 5604 5604 5604 5606 5608 5608 5608 5609 5609 5611 5612 5612 5612 5611 5609 5607 5606 5604 5600 5597 5594 5588 5582 5575 5567 5559 5550 5542 5533 5525 5517 5508 5499 5490 5480 5470 5461 5452 5443 5435 5427
5588 5586 5585 5584 5584 5585 5585 5586 5586 5588 5589 5590 5592 5593 5594 5595 5594 5593 5593 5593 5591 5588 5586 5583 5579 5573 5567 5560 5552 5545 5537 5529 5521 5513 5505 5496 5487 5478 5469 5460 5451 5442 5434 5426
5570 5567 5565 5563 5563 5564 5564 5563 5565 5567 5569 5571 5573 5574 5575 5577 5577 5577 5578 5578 5576 5575 5574 5572 5568 5564 5559 5552 5545 5538 5531 5523 5516 5509 5501 5493 5485 5476 5467 5458 5449 5441 5433 5425
5549 5546 5544 5542 5542 5543 5543 5544 5544 5546 5548 5551 5553 5555 5556 5558 5560 5561 5562 5563 5562 5562 5562 5561 5558 5554 5550 5544 5538 5531 5525 5518 5511 5504 5497 5490 5482 5473 5465 5456 5448 5439 5431 5424
5528 5525 5523 5521 5520 5521 5522 5522 5524 5526 5528 5531 5534 5536 5538 5541 5543 5545 5546 5547 5548 5549 5550 5549 5547 5544 5540 5535 5530 5524 5518 5512 5506 5499 5493 5486 5478 5470 5462 5454 5446 5438 5430 5422
5505 5503 5501 5499 5499 5500 5501 5502 5504 5506 5508 5512 5515 5517 5520 5523 5526 5528 5530 5533 5534 5536 5537 5536 5535 5533 5530 5526 5521 5516 5511 5505 5500 5494 5488 5481 5474 5467 5459 5451 5444 5436 5428 5421
5481 5479 5478 5478 5478 5478 5479 5481 5483 5486 5489 5492 5496 5499 5502 5506 5509 5512 5515 5518 5521 5523 5524 5524 5524 5522 5520 5516 5512 5508 5503 5499 5494 5488 5483 5477 5470 5463 5456 5449 5441 5433 5426 5419
5456 5455 5454 5455 5456 5457 5458 5461 5464 5467 5470 5474 5478 5482 5485 5489 5493 5497 5500 5504 5507 5510 5511 5512 5512 5511 5510 5507 5503 5500 5496 5492 5487 5482 5477 5472 5466 5459 5453 5445 5438 5431 5424 5417